[[{"header":{"parameterUnit":"m.s-1","parameterCategory":1,"la1":30.2991,"la2":30.254,"lo1":-89.0895,"lo2":-89.0444,"dy":0.0017,"dx":0.0017,"nx":28,"ny":28,"refTime":"2025-09-01T03:00:00:Z","depth":0,"parameterNumber":2,"parameterNumberName":"U-component_of_WINDS"},"data":[0,0,0,0,0,0,0,0,0,0,0,0,0,0,0,0,0,0,0,0,0,0,0,0,0,0,0,0,0,0,0,0,0,0,0,0,0,0,0,0,0,0,0,0,0,0,0,0,0,0,0,0,0,0,0,0,0,0,-2.1717,-2.1717,0,-2.1732,-2.1732,-2.1732,-2.1661,-2.1659,-2.1657,-2.1655,-2.1671,-2.1673,-2.1675,0,0,0,0,0,0,0,0,0,0,0,0,0,-2.1627,-2.1629,-2.1717,-2.1717,-2.1717,-2.1732,-2.1732,-2.1732,-2.1662,-2.1659,-2.1657,-2.1654,-2.167,-2.1673,-2.1675,0,0,0,0,0,0,0,0,0,0,0,0,0,-2.1656,-2.163,-2.1717,-2.1684,-2.1681,-2.1732,-2.1732,-2.1732,-2.1662,-2.1659,-2.1656,-2.1653,-2.1669,-2.1672,-2.1676,-2.1759,0,0,-2.1686,-2.1688,0,0,0,0,0,0,0,0,-2.1655,-2.166,-2.1688,-2.1686,-2.1683,-2.1691,-2.1706,-2.1741,-2.1663,-2.1669,-2.1655,-2.1652,-2.168,-2.1682,-2.1692,-2.176,-2.176,-2.1687,-2.1689,-2.169,-2.1691,0,0,0,0,0,0,0,-2.1653,-2.1659,-2.1723,-2.1689,-2.1686,-2.1668,-2.1669,-2.1712,-2.1692,-2.1669,-2.1663,-2.1666,-2.1678,-2.1689,-2.1692,-2.1761,-2.1687,-2.169,-2.1692,-2.1693,-2.1896,-2.1899,0,0,0,0,0,0,-2.1655,-2.1657,-2.1722,-2.1723,-2.1661,-2.1672,-2.1673,-2.1692,-2.1691,-2.1688,-2.1669,-2.1663,-2.1684,-2.1688,-2.1692,-2.1789,-2.169,-2.1694,-2.1696,-2.1893,-2.1897,-2.1901,0,0,0,0,0,0,-2.1653,-2.1662,-2.1722,-2.1689,-2.1695,-2.1677,-2.1699,-2.1694,-2.1704,-2.1691,-2.1687,-2.1684,-2.1682,-2.1687,-2.1743,-2.1788,-2.1695,-2.1698,-2.1889,-2.1894,-2.1899,-2.1983,0,0,0,0,0,0,-2.1651,-2.1661,-2.1693,-2.169,-2.1697,-2.1772,-2.1702,-2.1696,-2.1711,-2.1703,-2.1704,-2.1701,-2.168,-2.1738,-2.1746,-2.1791,-2.1701,-2.1885,-2.1891,-2.1897,-2.1976,-2.199,-2.2002,0,0,0,0,0,-2.1648,-2.1716,-2.1695,-2.1703,-2.1736,-2.1775,-2.1779,-2.1753,-2.1715,-2.1746,-2.1737,-2.1701,-2.1782,-2.1744,-2.1753,-2.18,-2.1882,-2.189,-2.1897,-2.197,-2.1987,-2.2002,0,0,0,0,0,0,-2.1725,-2.1715,-2.1692,-2.1761,-2.1769,-2.1763,-2.1802,-2.1772,-2.1792,-2.1784,-2.1751,-2.1752,-2.1813,-2.1812,-2.177,-2.188,-2.1825,-2.1835,-2.1878,-2.1894,-2.1907,-2.1906,-2.1704,0,0,0,0,0,-2.175,-2.1783,-2.1772,-2.1834,-2.184,-2.1821,-2.1836,-2.1816,-2.1823,-2.1826,-2.1822,-2.183,-2.1857,-2.1876,-2.19,-2.1976,-2.1975,-2.2012,-2.2026,-2.2036,-2.2045,-2.2084,-2.21,-2.1925,-2.1925,-2.1925,0,0,-2.1803,-2.1801,-2.1824,-2.185,-2.1854,-2.1888,-2.1824,-2.1863,-2.1887,-2.1832,-2.1884,-2.1881,-2.1888,-2.1954,-2.1983,-2.1955,-2.2093,-2.2046,-2.2055,-2.2057,-2.2093,-2.211,-2.2124,-2.193,-2.1929,-2.1928,0,0,-2.1914,-2.1917,-2.1969,-2.1974,-2.1981,-2.1967,-2.198,-2.1978,-2.1974,-2.2025,-2.1984,-2.2013,-2.2061,-2.2068,-2.2077,-2.2191,-2.2159,-2.22,-2.2269,-2.2307,-2.2321,-2.2333,-2.2373,-2.2388,-2.2209,-2.2209,-2.2209,0,-2.1978,-2.2028,-2.1999,-2.204,-2.2053,-2.2004,-2.2056,-2.2062,-2.2077,-2.2087,-2.2056,-2.2114,-2.2116,-2.2182,-2.2209,-2.2219,-2.2232,-2.22,-2.2321,-2.2333,-2.2344,-2.2382,-2.2397,-2.2214,-2.2214,-2.2213,-2.2213,0,-2.2105,-2.214,-2.2181,-2.2196,-2.2213,-2.226,-2.2238,-2.2259,-2.2236,-2.2226,-2.2279,-2.2279,-2.2302,-2.2316,-2.2295,-2.238,-2.2362,-2.2327,-2.2271,-2.2366,-2.2401,-2.2415,-2.2221,-2.2219,-2.2218,-2.2217,0,0,-2.2266,-2.2264,-2.228,-2.2286,-2.2289,-2.2316,-2.236,-2.2382,-2.24,-2.2412,-2.2448,-2.2489,-2.2456,-2.2467,-2.2447,-2.2481,-2.257,-2.2441,-2.244,-2.2464,-2.2662,-2.2688,-2.2705,-2.2548,-2.2551,-2.2553,-2.2661,0,-2.2375,-2.245,-2.2425,-2.2501,-2.2533,-2.2487,-2.2525,-2.2531,-2.2523,-2.2548,-2.2539,-2.2568,-2.2523,-2.253,-2.2561,-2.2552,-2.2609,-2.2544,-2.2581,-2.2582,-2.258,-2.2723,-2.2751,-2.2852,-2.2674,-2.2677,-2.2678,0,-2.2512,-2.2529,-2.2608,-2.2606,-2.2618,-2.2653,-2.2671,-2.2696,-2.2702,-2.2694,-2.2706,-2.2678,-2.2721,-2.2666,-2.2724,-2.268,-2.2694,-2.2692,-2.2695,-2.2697,-2.2636,-2.2728,-2.2884,-2.2899,-2.27,-2.2698,-2.2696,0,-2.2621,-2.2663,-2.2716,-2.2722,-2.2721,-2.2747,-2.2747,-2.275,-2.2765,-2.2781,-2.279,-2.2811,-2.2823,-2.2839,-2.2818,-2.278,-2.2879,-2.2822,-2.2872,-2.2873,-2.2895,-2.2893,-2.3054,-2.2905,-2.2905,-2.2904,-2.2904,0,-2.2745,-2.2795,-2.2764,-2.2796,-2.2851,-2.2822,-2.2876,-2.2872,-2.2875,-2.2905,-2.2867,-2.2897,-2.2866,-2.2893,-2.2876,-2.2926,-2.2932,-2.2926,-2.2921,-2.2929,-2.293,-2.2937,-2.2929,-2.2908,-2.2907,-2.2907,-2.2906,0,-2.2875,-2.2857,-2.291,-2.2905,-2.2905,-2.2945,-2.294,-2.2969,-2.2958,-2.2997,-2.3004,-2.2987,-2.3016,-2.2996,-2.3025,-2.3014,-2.308,-2.3065,-2.3077,-2.3073,-2.3124,-2.312,-2.3295,-2.3316,-2.3154,-2.3155,-2.3157,0,-2.2955,-2.2992,-2.299,-2.3008,-2.3011,-2.304,-2.3054,-2.3027,-2.3044,-2.3053,-2.3082,-2.3107,-2.3126,-2.3175,-2.3165,-2.3187,-2.3172,-2.3232,-2.3175,-2.3182,-2.3172,-2.317,-2.3173,-2.3243,-2.3245,-2.3247,-2.3248,0,-2.3099,-2.3087,-2.311,-2.313,-2.3148,-2.3162,-2.3173,-2.319,-2.3162,-2.3183,-2.3212,-2.3227,-2.3256,-2.3282,-2.33,-2.3301,-2.327,-2.3266,-2.3279,-2.3287,-2.3293,-2.329,-2.3108,-2.3262,-2.3261,-2.326,-2.3259,-2.3258,-2.3205,-2.3236,-2.3239,-2.3266,-2.3271,-2.3282,-2.3309,-2.3301,-2.3325,-2.3346,-2.3329,-2.3363,-2.3368,-2.3389,-2.3393,-2.342,-2.3395,-2.3414,-2.3418,-2.3423,-2.343,-2.3289,-2.3423,-2.3423,-2.3422,-2.3422,-2.3421,0,-2.3346,-2.3346,-2.3371,-2.3387,-2.3407,-2.3376,-2.3387,-2.3406,-2.3437,-2.3444,-2.3463,-2.3496,-2.3521,-2.3513,-2.3535,-2.3557,-2.3544,-2.3564,-2.3562,-2.3562,-2.3451,-2.3437,-2.3575,-2.3575,-2.3575,-2.3575,-2.3575,-2.3575,-2.3422,-2.3472,-2.3461,-2.3513,-2.3512,-2.3546,-2.3554,-2.3564,-2.3569,-2.3608,-2.3628,-2.3622,-2.3623,-2.3644,-2.3666,-2.3662,-2.3672,-2.3697,-2.3689,-2.3585,-2.357,-2.3556,-2.3543,-2.37,-2.37,-2.3798,-2.3799,-2.38]},{"header":{"parameterUnit":"m.s-1","parameterCategory":1,"la1":30.2991,"la2":30.254,"lo1":-89.0895,"lo2":-89.0444,"dy":0.0017,"dx":0.0017,"nx":28,"ny":28,"refTime":"2025-09-01T03:00:00:Z","depth":0,"parameterNumber":3,"parameterNumberName":"V-component_of_WINDS"},"data":[0,0,0,0,0,0,0,0,0,0,0,0,0,0,0,0,0,0,0,0,0,0,0,0,0,0,0,0,0,0,0,0,0,0,0,0,0,0,0,0,0,0,0,0,0,0,0,0,0,0,0,0,0,0,0,0,0,0,2.0233,2.0232,0,2.0213,2.0213,2.0213,2.0187,2.0186,2.0186,2.0186,2.0165,2.0165,2.0165,0,0,0,0,0,0,0,0,0,0,0,0,0,2.0246,2.0246,2.0233,2.0232,2.0232,2.0213,2.0213,2.0213,2.0187,2.0186,2.0186,2.0185,2.0165,2.0165,2.0165,0,0,0,0,0,0,0,0,0,0,0,0,0,2.0235,2.0246,2.0233,2.0217,2.0215,2.0213,2.0213,2.0213,2.0187,2.0186,2.0186,2.0185,2.0165,2.0165,2.0165,2.0176,0,0,2.0164,2.0164,0,0,0,0,0,0,0,0,2.0236,2.0234,2.022,2.0218,2.0216,2.0202,2.021,2.02,2.0187,2.0198,2.0186,2.0185,2.0178,2.0177,2.0174,2.0175,2.0174,2.0164,2.0164,2.0164,2.0164,0,0,0,0,0,0,0,2.0236,2.0235,2.0225,2.0219,2.0217,2.0211,2.0208,2.0208,2.0192,2.0197,2.0195,2.0193,2.0177,2.0175,2.0174,2.0174,2.0164,2.0164,2.0164,2.0164,2.0182,2.0182,0,0,0,0,0,0,2.024,2.0236,2.0225,2.0224,2.0225,2.0211,2.0208,2.0207,2.0192,2.0189,2.0194,2.0192,2.0175,2.0174,2.0173,2.0184,2.0164,2.0164,2.0164,2.0181,2.0182,2.0182,0,0,0,0,0,0,2.024,2.0239,2.0226,2.023,2.0227,2.0211,2.021,2.0207,2.0205,2.0189,2.0186,2.0194,2.0175,2.0173,2.0175,2.0183,2.0164,2.0163,2.018,2.0181,2.0182,2.0207,0,0,0,0,0,0,2.0241,2.0239,2.0244,2.023,2.0227,2.0229,2.0211,2.0207,2.0204,2.0202,2.0189,2.0186,2.0174,2.0176,2.0175,2.0182,2.0163,2.0179,2.0181,2.0182,2.0205,2.0208,2.0211,0,0,0,0,0,2.0241,2.0252,2.0244,2.0243,2.0233,2.023,2.0228,2.0214,2.0205,2.0209,2.0199,2.0187,2.0182,2.0176,2.0175,2.0182,2.0179,2.018,2.0182,2.0204,2.0208,2.0211,0,0,0,0,0,0,2.0267,2.025,2.0241,2.0247,2.024,2.0226,2.023,2.0219,2.0215,2.0212,2.0195,2.0192,2.0196,2.019,2.0183,2.0192,2.0179,2.018,2.0196,2.0199,2.0202,2.0203,2.0163,0,0,0,0,0,2.0273,2.0273,2.0258,2.0265,2.0262,2.0247,2.0245,2.0235,2.0227,2.0223,2.0213,2.0206,2.0202,2.0201,2.0197,2.0204,2.02,2.0208,2.0211,2.0214,2.0215,2.0217,2.022,2.0187,2.0187,2.0187,0,0,2.0286,2.0277,2.0278,2.027,2.0263,2.0262,2.0244,2.0245,2.0244,2.0223,2.0224,2.0217,2.0207,2.0211,2.0213,2.0206,2.0223,2.0216,2.0218,2.0217,2.0218,2.0221,2.0224,2.0188,2.0188,2.0187,0,0,2.031,2.0303,2.0308,2.0301,2.0291,2.0281,2.0282,2.0269,2.0263,2.0264,2.0248,2.0247,2.0242,2.0235,2.0231,2.0251,2.0239,2.025,2.0266,2.0268,2.027,2.0272,2.0278,2.028,2.0252,2.0252,2.0252,0,2.0327,2.0326,2.0311,2.0312,2.0309,2.029,2.0294,2.0289,2.0278,2.0276,2.0268,2.0261,2.0253,2.0255,2.0259,2.0257,2.0257,2.0251,2.0271,2.0273,2.0275,2.028,2.0282,2.0253,2.0253,2.0253,2.0253,0,2.0347,2.0347,2.0352,2.0341,2.0338,2.0341,2.0326,2.0325,2.0315,2.0305,2.0305,2.0295,2.0289,2.0288,2.0279,2.0288,2.0284,2.0274,2.0261,2.028,2.0284,2.0286,2.0255,2.0255,2.0254,2.0254,0,0,2.0386,2.0368,2.0369,2.0364,2.0351,2.035,2.0352,2.0345,2.0344,2.0337,2.0337,2.0332,2.0323,2.0318,2.0307,2.0309,2.0324,2.0299,2.0298,2.0303,2.0332,2.0339,2.0342,2.0316,2.0317,2.0317,2.0333,0,2.0406,2.0407,2.0394,2.0399,2.0397,2.0379,2.038,2.0372,2.0363,2.036,2.035,2.0347,2.0335,2.0332,2.0333,2.0322,2.0329,2.0321,2.0315,2.0315,2.0317,2.0344,2.0352,2.0367,2.0334,2.0335,2.0335,0,2.043,2.0424,2.0428,2.0414,2.0413,2.0414,2.0406,2.0404,2.0394,2.0388,2.0382,2.037,2.0369,2.0357,2.0355,2.035,2.0346,2.034,2.0341,2.0339,2.0325,2.0342,2.0372,2.0374,2.0338,2.0338,2.0337,0,2.0456,2.0449,2.0451,2.0447,2.0431,2.0432,2.0425,2.0415,2.0412,2.0405,2.0402,2.0395,2.0391,2.0386,2.0372,2.0365,2.0371,2.0358,2.0364,2.0365,2.0366,2.0366,2.0394,2.0366,2.0366,2.0366,2.0366,0,2.0479,2.0482,2.0462,2.0463,2.0465,2.045,2.0452,2.0444,2.0435,2.0433,2.0418,2.0416,2.0398,2.0394,2.0383,2.0383,2.0381,2.0375,2.0372,2.0376,2.0376,2.0372,2.0371,2.0366,2.0366,2.0366,2.0366,0,2.0508,2.0495,2.0495,2.048,2.0476,2.0479,2.0466,2.0465,2.0455,2.0453,2.0452,2.0436,2.043,2.0416,2.0407,2.0399,2.0401,2.0396,2.0405,2.0402,2.0409,2.0408,2.0435,2.0437,2.0409,2.0409,2.0409,0,2.0523,2.0525,2.051,2.0508,2.0502,2.0499,2.0495,2.0479,2.0476,2.0464,2.0465,2.0459,2.0452,2.0445,2.0432,2.0424,2.0418,2.0428,2.0417,2.042,2.0417,2.0416,2.0416,2.043,2.0431,2.0431,2.0431,0,2.0551,2.0544,2.0539,2.0532,2.0528,2.0522,2.0514,2.0513,2.0496,2.0493,2.0487,2.0482,2.0473,2.0466,2.0457,2.0449,2.0437,2.0435,2.0436,2.0439,2.0444,2.044,2.041,2.0434,2.0434,2.0434,2.0434,2.0434,2.0572,2.0573,2.0562,2.0557,2.055,2.0543,2.0542,2.0531,2.0527,2.0518,2.0509,2.0504,2.0493,2.0479,2.0472,2.0467,2.0461,2.0463,2.0463,2.0463,2.0464,2.0445,2.0466,2.0466,2.0465,2.0465,2.0465,0,2.0598,2.059,2.0586,2.0576,2.0572,2.0561,2.0552,2.0549,2.0545,2.0536,2.053,2.0523,2.0516,2.0503,2.0495,2.0493,2.0487,2.0491,2.0491,2.0489,2.0471,2.0471,2.0496,2.0496,2.0496,2.0496,2.0496,2.0496,2.0611,2.061,2.0602,2.0598,2.059,2.0585,2.0581,2.0574,2.0566,2.0559,2.0554,2.0545,2.0534,2.0524,2.0517,2.0513,2.051,2.0516,2.051,2.0493,2.049,2.0488,2.0487,2.0516,2.0516,2.0528,2.0528,2.0528]}]]